Regional Weather Roundup
Issued by NWS

Home | Current Version | Previous Version | Graphics & Text | Print | Product List | Glossary On
Versions: 1 2 3 4 5 6 7 8 9 10 11 12 13 14 15 16 17 18 19 20 21 22 23 24 25 26 27 28 29 30 31 32 33 34 35 36 37 38 39 40 41 42 43 44 45 46 47 48 49 50
913
ASUS45 KSLC 220310
RWRUT

UTAH REGIONAL WEATHER ROUNDUP
NATIONAL WEATHER SERVICE SALT LAKE CITY UT
800 PM MST SAT JAN 21 2017

UTZ001>011-023>025-220400-

NORTHERN UTAH

CITY           SKY/WX    TMP DP  RH WIND       PRES   REMARKS
BRIGHAM CITY     N/A     35  27  74 CALM      29.85R
HILL AFB       MOCLDY    30  24  78 SE5       29.85R WCI  25
LOGAN          LGT SNOW  31  31 100 N6        29.84R FOG     WCI  25
OGDEN          MOCLDY    29  26  89 S6        29.84R WCI  23
SALT LAKE CITY MOCLDY    33  29  85 S3        29.85R
TOOELE VALLEY  MOCLDY    30  25  80 SE6       29.86R WCI  24
WENDOVER       PTCLDY    28  23  80 CALM      29.85R
HEBER CITY     FLURRIES  27  21  80 SE3       29.82R

$$

UTZ011>015-024>027-220400-

CENTRAL/NORTHEAST UTAH

CITY           SKY/WX    TMP DP  RH WIND       PRES   REMARKS
PROVO AIRPORT  PTCLDY    28  27  93 CALM      29.88R
MOAB/CANYONLAN PTCLDY    35  29  78 W10       29.78R WCI  27
DELTA          PTCLDY    27  23  86 SE9       29.88R WCI  17
PRICE          CLEAR     24  16  71 N8        29.78R WCI  15
RICHFIELD      CLEAR     25  21  86 NE1       29.91R
VERNAL         CLOUDY    24  21  88 CALM      29.78R FOG

$$

UTZ013>016-019>022-027-220400-

SOUTHERN UTAH

CITY           SKY/WX    TMP DP  RH WIND       PRES   REMARKS
BRYCE CANYON   PTCLDY    14  10  84 NW6       29.86R WCI   5
CEDAR CITY     CLEAR     26  17  68 VRB5      29.90R WCI  20
MILFORD        CLEAR     28  21  75 SW7       29.88R WCI  21
ST GEORGE      MOCLDY    41  30  65 SE6       29.96R
HANKSVILLE     CLEAR     37  21  52 MISG      29.85R
KANAB          CLEAR     32  27  80 S6        29.98R WCI  26
BLANDING       PTCLDY    28  26  93 CALM      29.86R

$$

REGIONAL REPORTS     COLORADO/ARIZONA

CITY           SKY/WX    TMP DP  RH WIND       PRES   REMARKS
CRAIG, CO      LGT SNOW  27  23  85 SW13      29.73R FOG     WCI  16
GRAND JUNCTION CLOUDY    33  33 100 NW7       29.76R WCI  27
RIFLE, CO      CLOUDY    34  27  75 W13       29.72R WCI  25
MONTROSE, CO   CLOUDY    33  29  85 CALM      29.75R
CORTEZ, CO     CLOUDY    31  29  92 W15       29.80R WCI  20
COLORADO CITY    N/A     32  30  93 E5        29.97R WCI  27
PAGE, AZ       CLEAR     41  19  41 W9        29.88R
GRAND CANYON   CLEAR     11  11 100 CALM      29.95R
KINGMAN, AZ    CLEAR     40  25  55 S9        29.97R WCI  34
FLAGSTAFF, AZ  CLEAR     23  20  88 CALM      29.94R

$$

REGIONAL REPORTS    NEVADA/IDAHO/WYOMING

CITY           SKY/WX    TMP DP  RH WIND       PRES   REMARKS
LAS VEGAS, NV  CLEAR     49  30  48 S5        29.93R
ELY, NY        MOCLDY    19  13  77 S14       29.87R WCI   6
ELKO, NV       CLOUDY    27  20  75 CALM      29.82R
POCATELLO, ID  CLOUDY    28  23  81 S10       29.79R WCI  19
BURLEY, ID     CLOUDY    35  28  75 SW7       29.78R WCI  29
FORT BRIDGER,    N/A     23  23 100 W20       29.79R WCI   8
EVANSTON, WY   CLOUDY    17  13  84 W13       29.78R WCI   4
ROCK SPRINGS,  CLOUDY    25  18  74 W24G31    29.70R WCI   9

$$




USA.gov is the U.S. government's official web portal to all federal, state and local government web resources and services.